Everett, WA

11:05 PM PST on December 06, 2019 (GMT -0800)
Snohomish County

Weather History for KPAE - July, 2019

Change the Weather History Date:

Wednesday, July 24, 2019

  Actual Average Record
Temperature  
Mean Temperature 64 °F -  
Max Temperature 73 °F 73 °F 91 °F (1991)
Min Temperature 55 °F 53 °F 43 °F (1973)
Degree Days  
Heating Degree Days 1    
Growing Degree Days 14 (Base 50)    
Moisture  
Dew Point 52 °F    
Average Humidity 69    
Maximum Humidity 90    
Minimum Humidity 42    
Precipitation  
Precipitation 0.01 in - - ()
Sea Level Pressure  
Sea Level Pressure 30.25 in    
Wind  
Wind Speed 6 mph (North)    
Max Wind Speed 10 mph    
Max Gust Speed -    
Visibility 10 miles    
Events Rain    
Averages and records for this station are not official NWS values.
T = Trace of Precipitation, MM = Missing Value Source: NWS Daily Summary

Daily Weather History Graph

Daily Weather History Graph

Search for Another Location

Airport or City:

Astronomy

Jul. 24, 2019 Rise Set
Actual Time 5:35 AM PDT 8:54 PM PDT
Civil Twilight 4:57 AM PDT 9:32 PM PDT
Nautical Twilight 4:08 AM PDT 10:21 PM PDT
Astronomical Twilight 3:03 AM PDT 11:25 PM PDT
Moon 12:16 AM PDT (7/24) 1:23 PM PDT (7/24)
Length of Visible Light 16h 34m
Length of Day
15h 19m
Waning Gibbous, 53% of the Moon is Illuminated
Jul 24
Waning Gibbous
Jul 24
Last Quarter
Jul 31
New
Aug 7
First Quarter
Aug 15
Full

Hourly Weather History & Observations

Time (PDT) Temp. Dew Point Humidity Pressure Visibility Wind Dir Wind Speed Gust Speed Precip Events Conditions
12:53 AM 57.9 °F 51.1 °F 78% 30.17 in 10.0 mi North 5.8 mph - N/A   Overcast
1:53 AM 57.9 °F 51.1 °F 78% 30.19 in 10.0 mi NE 3.5 mph - 0.00 in Rain Light Rain
2:53 AM 55.9 °F 53.1 °F 90% 30.20 in 10.0 mi East 4.6 mph - 0.01 in   Overcast
3:08 AM 57.0 °F 53.1 °F 87% 30.21 in 10.0 mi ESE 5.8 mph - N/A   Overcast
3:30 AM 57.0 °F 53.1 °F 87% 30.21 in 10.0 mi ESE 4.6 mph - N/A   Overcast
3:53 AM 55.9 °F 52.0 °F 87% 30.21 in 10.0 mi ESE 8.1 mph - N/A   Mostly Cloudy
4:53 AM 55.9 °F 52.0 °F 87% 30.24 in 10.0 mi SE 3.5 mph - N/A   Overcast
5:23 AM 55.9 °F 52.0 °F 87% 30.24 in 10.0 mi SSE 6.9 mph - N/A   Scattered Clouds
5:53 AM 55.9 °F 52.0 °F 87% 30.26 in 10.0 mi SSE 5.8 mph - N/A   Mostly Cloudy
6:53 AM 55.9 °F 52.0 °F 87% 30.27 in 10.0 mi SSE 5.8 mph - N/A   Partly Cloudy
7:53 AM 59.0 °F 54.0 °F 83% 30.28 in 10.0 mi South 5.8 mph - N/A   Clear
8:53 AM 62.1 °F 54.0 °F 75% 30.29 in 10.0 mi SSW 10.4 mph - N/A   Mostly Cloudy
9:45 AM 63.0 °F 53.1 °F 70% 30.29 in 10.0 mi SSW 6.9 mph - N/A   Mostly Cloudy
9:53 AM 64.0 °F 53.1 °F 67% 30.30 in 10.0 mi South 8.1 mph - N/A   Scattered Clouds
10:17 AM 64.0 °F 54.0 °F 70% 30.29 in 10.0 mi WSW 8.1 mph - N/A   Mostly Cloudy
10:53 AM 63.0 °F 53.1 °F 70% 30.30 in 10.0 mi West 5.8 mph - N/A   Mostly Cloudy
11:53 AM 64.0 °F 53.1 °F 67% 30.31 in 10.0 mi West 8.1 mph - N/A   Mostly Cloudy
12:00 PM 63.0 °F 53.1 °F 70% 30.31 in 10.0 mi WNW 8.1 mph - N/A   Mostly Cloudy
12:07 PM 63.0 °F 53.1 °F 70% 30.31 in 10.0 mi West 6.9 mph - N/A   Mostly Cloudy
12:53 PM 64.9 °F 53.1 °F 65% 30.32 in 10.0 mi Variable 5.8 mph - N/A   Scattered Clouds
1:53 PM 70.0 °F 51.1 °F 51% 30.30 in 10.0 mi Calm Calm - N/A   Scattered Clouds
2:53 PM 71.1 °F 52.0 °F 51% 30.29 in 10.0 mi Variable 6.9 mph - N/A   Mostly Cloudy
3:53 PM 73.0 °F 50.0 °F 44% 30.27 in 10.0 mi North 9.2 mph - N/A   Clear
4:53 PM 72.0 °F 48.9 °F 44% 30.26 in 10.0 mi NNW 8.1 mph - N/A   Clear
5:53 PM 73.0 °F 48.9 °F 42% 30.24 in 10.0 mi North 6.9 mph - N/A   Clear
6:53 PM 71.1 °F 46.9 °F 42% 30.22 in 10.0 mi North 8.1 mph - N/A   Clear
7:53 PM 69.1 °F 46.0 °F 44% 30.21 in 10.0 mi NNW 5.8 mph - N/A   Clear
8:53 PM 64.9 °F 48.0 °F 54% 30.20 in 10.0 mi NNW 3.5 mph - N/A   Clear
9:53 PM 63.0 °F 48.9 °F 60% 30.21 in 10.0 mi NNW 4.6 mph - N/A   Clear
10:53 PM 61.0 °F 51.1 °F 70% 30.20 in 10.0 mi North 5.8 mph - N/A   Clear
11:53 PM 60.1 °F 51.1 °F 72% 30.20 in 10.0 mi NNE 5.8 mph - N/A   Clear